Lid_Strength_Index
6 5 5 6 6 6 6 6 6 6 6 6 6 6 6 6 6 6 3 2 4 5 4 3 3 4 4 4 6 4 5 4 5 8 8 8 8 7 8 7 8 9 10 10 9 11 13 5 5 8 6 5 4 4
6 6 6 6 6 6 5 5 6 6 6 6 6 6 6 6 6 6 4 3 3 5 5 4 3 3 3 3 4 4 5 4 5 6 6 6 8 7 8 10 6 9 7 9 9 9 5 4 5 3 3 4 4 4
5 5 6 6 6 6 6 6 6 6 6 6 6 6 6 5 6 6 5 3 3 4 4 4 4 2 2 2 2 5 4 3 3 3 5 6 8 6 9 8 7 6 5 7 7 6 5 4 4 3 3 3 3 3
6 6 6 5 5 5 5 6 6 6 7 6 6 6 6 6 6 6 5 3 3 3 6 4 1 2 1 1 1 1 3 2 3 3 5 6 7 5 7 6 7 5 5 7 7 5 5 4 4 3 3 3 3 3
6 6 6 5 5 5 5 5 5 5 5 5 5 5 5 5 6 5 3 1 1 3 6 5 2 2 1 1 1 2 2 3 4 5 5 6 5 5 5 5 6 5 5 7 8 5 5 4 3 3 3 3 3 3
5 6 6 5 5 5 5 5 5 5 5 5 5 5 5 5 5 3 3 0 -0 1 4 6 2 2 2 1 2 2 2 3 3 4 5 4 3 5 7 8 5 4 3 3 5 3 3 3 3 2 3 3 3 3
5 5 5 5 5 5 5 5 5 5 5 5 5 5 5 5 4 3 4 3 4 1 4 6 5 3 2 2 2 3 2 3 3 4 5 5 5 4 6 8 5 4 3 3 3 3 4 3 4 3 2 2 3 2
5 5 5 5 5 5 5 5 6 6 6 5 6 6 5 5 5 3 2 4 3 3 3 7 6 4 2 4 5 2 4 4 4 5 4 5 5 5 8 5 4 3 3 3 3 3 3 3 3 3 2 3 3 3
4 5 5 5 5 5 5 5 5 5 5 5 5 5 3 4 2 2 5 4 1 2 6 6 7 8 2 4 3 4 3 6 4 6 6 5 6 8 6 5 4 4 4 4 3 3 3 3 3 3 3 3 4 3
4 4 5 5 5 5 5 5 5 5 5 5 3 3 4 2 3 3 2 4 4 3 3 6 4 6 4 5 6 5 4 6 8 6 4 6 7 5 4 3 3 4 4 3 4 5 4 4 4 3 3 3 3 3
4 4 5 5 5 5 5 5 5 5 4 3 5 4 3 2 2 3 5 6 5 7 5 5 4 6 3 7 7 5 7 6 9 7 7 8 8 6 4 3 3 3 3 3 3 3 3 3 3 3 3 3 3 3
5 5 5 5 5 5 4 4 5 4 4 5 6 5 3 3 4 6 7 6 6 8 5 6 5 4 4 3 6 5 7 6 9 5 7 9 9 6 6 4 3 3 3 3 2 3 3 3 3 3 3 3 3 3
5 5 5 5 5 5 5 4 5 5 5 3 5 5 4 5 11 9 10 8 8 5 5 5 6 4 4 3 7 7 9 8 5 8 9 10 7 6 6 5 3 2 3 3 3 2 3 3 3 3 4 3 3 2
5 5 5 5 5 5 4 4 4 4 4 5 5 12 7 8 7 6 6 7 5 4 5 4 5 5 4 7 6 10 7 7 10 10 11 9 7 6 5 4 4 4 3 3 3 3 3 3 4 3 3 3 3 3
4 5 6 5 4 4 4 4 4 3 5 7 6 11 7 5 4 4 3 4 3 3 4 5 5 5 6 7 7 8 10 11 11 12 9 6 5 5 5 4 4 4 4 3 3 4 4 3 3 3 2 2 2 3
4 5 4 4 4 4 5 4 3 3 6 8 6 7 5 5 5 4 4 4 3 3 3 4 7 8 8 8 10 10 11 12 10 8 6 4 5 4 4 4 4 3 3 4 4 3 3 3 3 3 2 2 2 2
5 4 4 4 4 4 4 4 4 6 6 8 6 4 5 5 5 4 4 4 2 4 7 6 9 10 7 10 10 8 10 9 8 7 4 4 4 4 3 3 3 3 3 3 4 3 3 2 2 2 5 3 3 2
5 3 4 4 4 4 3 4 5 6 8 6 7 5 4 3 4 4 3 3 4 5 6 7 6 9 10 11 11 8 7 5 4 5 4 4 3 3 3 3 3 3 3 4 3 3 3 3 3 3 4 4 3 2
4 4 4 4 4 5 6 5 4 8 8 6 5 4 4 3 3 3 3 3 3 3 5 6 8 8 8 7 7 6 5 5 5 4 4 3 3 3 3 3 3 3 4 3 3 4 3 3 3 3 2 2 3 3
5 4 4 4 4 5 7 6 4 7 8 6 5 5 4 5 4 4 4 4 4 5 7 7 7 6 6 5 4 4 4 3 4 5 5 4 3 3 3 3 3 2 3 2 3 5 3 3 3 3 3 3 2 3
3 2 3 3 4 4 5 6 6 6 6 7 5 5 5 4 5 5 5 3 5 6 7 5 5 4 4 3 2 3 3 3 4 4 5 5 3 3 3 3 2 2 3 3 4 4 4 3 3 3 3 2 2 2
3 3 3 4 5 5 6 5 6 5 6 6 5 5 6 6 7 6 4 6 6 6 6 6 5 4 4 4 4 3 3 3 2 3 5 4 4 4 4 3 3 4 3 4 4 4 3 3 2 3 2 2 3 2
4 4 4 5 7 8 8 4 7 7 8 7 5 7 7 7 5 3 7 6 6 4 4 4 4 3 4 3 3 3 2 3 4 4 3 3 4 3 3 3 3 4 4 4 3 3 3 4 3 3 2 2 3 3
4 5 7 7 7 9 6 8 7 7 7 7 8 8 7 7 4 6 9 6 5 4 4 4 4 4 4 4 4 4 3 2 3 3 3 4 4 4 3 3 3 3 3 3 2 2 2 2 4 2 2 3 3 3
9 9 7 11 6 8 9 9 8 8 9 7 8 8 7 6 9 10 10 7 5 4 4 4 4 4 5 5 4 3 2 2 3 4 3 2 3 3 3 3 2 2 2 3 3 3 3 3 2 3 3 3 3 3
11 8 9 8 8 9 9 10 8 8 7 8 7 6 5 8 10 11 8 6 5 4 4 5 5 5 5 4 4 4 3 2 2 3 2 2 2 3 4 4 4 3 1 2 3 3 3 3 3 3 3 3 7 3
12 9 7 5 6 6 8 7 6 7 8 9 7 7 8 11 10 7 4 3 4 3 2 3 3 4 4 4 3 2 2 2 2 2 1 1 1 1 2 4 4 2 1 1 2 2 2 3 3 3 3 2 2 2
7 7 8 7 7 6 8 8 8 8 7 5 6 9 10 9 9 5 4 2 2 2 2 2 2 2 4 3 3 2 2 2 1 1 1 1 1 1 1 1 1 7 1 1 1 1 2 2 2 2 2 2 2 1
7 6 6 7 7 6 6 7 7 6 4 5 8 7 6 4 3 3 2 2 2 2 3 3 4 3 2 1 1 1 2 2 3 4 5 5 4 3 1 1 1 1 0 1 8 4 1 1 1 1 1 2 1 1
7 6 7 7 8 8 6 5 5 4 3 3 3 4 4 3 2 1 1 2 3 4 3 3 3 2 3 3 3 3 2 1 2 3 4 4 3 1 1 1 1 1 1 1 1 1 6 2 3 1 2 2 2 2
5 5 7 6 7 5 4 4 3 3 3 4 3 4 4 3 2 1 1 2 2 3 3 3 2 2 2 2 3 3 3 1 1 1 1 1 1 1 1 1 1 1 1 1 1 1 2 2 2 3 3 3 3 4
6 6 6 8 6 4 3 4 4 5 5 5 5 4 4 4 6 3 1 2 2 3 4 4 3 3 1 1 1 1 6 2 4 4 3 2 1 1 0 1 0 0 1 1 2 2 2 3 3 3 3 3 2 2
6 5 5 6 6 6 4 5 5 6 5 6 5 5 5 5 7 4 2 1 3 3 3 3 2 2 1 1 1 2 5 3 6 11 10 11 11 7 2 1 1 1 2 2 3 3 3 3 2 2 3 3 3 3